Henderson, NV

1:21 PM PDT on July 21, 2017 (GMT -0700)
Henderson

Weather History for KHND - September, 2013

Change the Weather History Date:

Wednesday, September 4, 2013

  Actual Average (KLAS) Record (KLAS)
Temperature  
Mean Temperature 87 °F -  
Max Temperature 99 °F 98 °F 111 °F (1947)
Min Temperature 73 °F 71 °F 57 °F (1941)
Cooling Degree Days 22    
Growing Degree Days 37 (Base 50)    
Moisture  
Dew Point 60 °F    
Average Humidity 48    
Maximum Humidity 74    
Minimum Humidity 24    
Precipitation  
Precipitation 0.02 in - - ()
Sea Level Pressure  
Sea Level Pressure 29.94 in    
Wind  
Wind Speed 7 mph (SSE)    
Max Wind Speed 32 mph    
Max Gust Speed 48 mph    
Visibility 10 miles    
Events Rain , Thunderstorm    
Averages and records for this station are not official NWS values.
T = Trace of Precipitation, MM = Missing Value Source: NWS Daily Summary

Daily Weather History Graph

Daily Weather History Graph

Search for Another Location

Airport or City:

Trip Planner

Search our weather history database for the weather conditions in past years. The results will help you decide how hot, cold, wet, or windy it might be!

Date:

Astronomy

Sep. 04, 2013 Rise Set
Actual Time 6:14 AM PDT 7:03 PM PDT
Civil Twilight 5:48 AM PDT 7:29 PM PDT
Nautical Twilight 5:18 AM PDT 8:00 PM PDT
Astronomical Twilight 4:46 AM PDT 8:31 PM PDT
Moon 5:30 AM PDT (9/4) 6:26 PM PDT (9/4)
Length of Visible Light 13h 40m
Length of Day
12h 48m
Waning Crescent, 1% of the Moon is Illuminated
Sep 4
Waning Crescent
Sep 5
New
Sep 12
First Quarter
Sep 19
Full
Sep 26
Last Quarter

Hourly Weather History & Observations

Time (PDT) Temp. Heat Index Dew Point Humidity Pressure Visibility Wind Dir Wind Speed Gust Speed Precip Events Conditions
12:56 AM 81.0 °F 81.7 °F 61.0 °F 50% 29.91 in 10.0 mi SSE 6.9 mph - N/A   Clear
1:56 AM 79.9 °F - 59.9 °F 50% 29.91 in 10.0 mi SSE 5.8 mph - N/A   Clear
2:56 AM 79.0 °F - 61.0 °F 54% 29.91 in 10.0 mi South 4.6 mph - N/A   Clear
3:56 AM 77.0 °F - 59.9 °F 55% 29.91 in 10.0 mi South 4.6 mph - N/A   Clear
4:56 AM 77.0 °F - 59.0 °F 54% 29.91 in 10.0 mi SSE 6.9 mph - N/A   Clear
5:56 AM 75.9 °F - 59.9 °F 57% 29.93 in 10.0 mi South 6.9 mph - N/A   Clear
6:56 AM 75.9 °F - 59.9 °F 57% 29.95 in 10.0 mi SSE 6.9 mph - N/A   Clear
7:56 AM 81.9 °F 82.2 °F 59.9 °F 47% 29.96 in 10.0 mi South 3.5 mph - N/A   Clear
8:56 AM 86.9 °F 86.3 °F 59.0 °F 39% 29.97 in 10.0 mi Calm Calm - N/A   Clear
9:56 AM 90.9 °F 89.7 °F 57.9 °F 33% 29.97 in 10.0 mi North 5.8 mph - N/A   Clear
10:56 AM 92.8 °F 92.1 °F 59.0 °F 32% 29.96 in 10.0 mi Calm Calm - N/A   Clear
11:56 AM 95.0 °F 94.0 °F 57.9 °F 29% 29.94 in 10.0 mi NNE 6.9 mph - N/A   Clear
12:56 PM 97.0 °F 95.3 °F 55.9 °F 25% 29.92 in 10.0 mi Calm Calm - N/A   Clear
1:56 PM 97.9 °F 96.6 °F 56.8 °F 25% 29.89 in 10.0 mi Calm Calm - N/A   Clear
2:56 PM 99.0 °F 97.7 °F 55.9 °F 24% 29.86 in 10.0 mi NNE 3.5 mph - N/A   Clear
3:56 PM 97.9 °F 96.6 °F 55.9 °F 25% 29.86 in 10.0 mi Calm Calm - N/A   Clear
4:19 PM 93.2 °F - 51.8 °F 24% 29.94 in 10.0 mi SSW 19.6 mph 25.3 mph N/A Thunderstorm Clear
4:56 PM 88.0 °F 86.9 °F 57.9 °F 36% 29.91 in 10.0 mi South 16.1 mph 26.5 mph 0.00 in Rain , Thunderstorm Heavy Thunderstorms and Rain
5:09 PM 78.8 °F - 62.6 °F 57% 30.00 in 5.0 mi SE 32.2 mph 48.3 mph 0.00 in Rain , Thunderstorm Heavy Thunderstorms and Rain
5:32 PM 78.8 °F - 62.6 °F 57% 30.02 in 6.0 mi SSE 17.3 mph 24.2 mph 0.00 in Rain Light Rain
5:56 PM 77.9 °F - 63.9 °F 62% 29.97 in 10.0 mi SSE 18.4 mph - 0.00 in Rain Light Rain
6:56 PM 79.0 °F - 63.0 °F 58% 29.94 in 10.0 mi ESE 10.4 mph - 0.02 in Rain Light Rain
7:56 PM 79.9 °F - 64.9 °F 60% 29.94 in 10.0 mi Calm Calm - 0.00 in Rain Light Rain
8:56 PM 79.0 °F - 63.9 °F 60% 29.95 in 10.0 mi East 5.8 mph - 0.00 in Rain Light Rain
9:56 PM 75.9 °F - 66.9 °F 74% 29.95 in 10.0 mi SE 6.9 mph - 0.00 in Rain Light Rain
10:56 PM 75.9 °F - 63.9 °F 66% 29.95 in 10.0 mi SSE 8.1 mph - 0.00 in Rain Light Rain
11:56 PM 73.9 °F - 64.9 °F 73% 29.94 in 10.0 mi SSE 5.8 mph - 0.00 in Rain Light Rain